RANA Weather Reports


Display with metric or nautical units.
time (UTC)temp
F
wind
direction
speed
MPH
gust
MPH
rain 1hr
in
rain 24hr
in
rain mn
in
humidity
%
barometer
mb
20260509181010 52 74 18.0 22.0 0.00 0.00 0.00 62
20260509180510 52 72 18.0 22.0 0.00 0.00 0.00 62
20260509180010 52 70 20.0 22.0 0.00 0.00 0.00 62
20260509175510 52 71 18.0 20.0 0.00 0.00 0.00 61
20260509175011 54 69 18.0 20.0 0.00 0.00 0.00 61
20260509174511 54 70 18.0 20.0 0.00 0.00 0.00 60
20260509174011 54 73 16.0 20.0 0.00 0.00 0.00 60
20260509173510 54 75 18.0 20.0 0.00 0.00 0.00 60
20260509173011 54 75 13.0 16.0 0.00 0.00 0.00 60
20260509172510 54 68 18.0 20.0 0.00 0.00 0.00 60
20260509172013 54 71 13.0 18.0 0.00 0.00 0.00 60
20260509171511 54 64 13.0 18.0 0.00 0.00 0.00 60
20260509171011 54 68 11.0 13.0 0.00 0.00 0.00 60
20260509170511 54 67 13.0 18.0 0.00 0.00 0.00 59
20260509170010 54 71 16.0 20.0 0.00 0.00 0.00 59
20260509165510 54 72 13.0 18.0 0.00 0.00 0.00 59
20260509165011 55 68 16.0 20.0 0.00 0.00 0.00 59
20260509164509 55 64 16.0 20.0 0.00 0.00 0.00 58
20260509164010 55 73 13.0 16.0 0.00 0.00 0.00 57
20260509163510 55 76 11.0 13.0 0.00 0.00 0.00 57
20260509163011 55 83 13.0 18.0 0.00 0.00 0.00 57
20260509162510 55 71 16.0 18.0 0.00 0.00 0.00 57
20260509162010 55 80 7.0 11.0 0.00 0.00 0.00 58
20260509161511 55 62 9.0 11.0 0.00 0.00 0.00 57
20260509161010 55 86 9.0 11.0 0.00 0.00 0.00 57
20260509160511 55 86 11.0 16.0 0.00 0.00 0.00 57
20260509160010 55 77 11.0 16.0 0.00 0.00 0.00 57
20260509155510 57 73 7.0 11.0 0.00 0.00 0.00 58
20260509155011 55 79 7.0 9.0 0.00 0.00 0.00 59
20260509154510 55 58 9.0 13.0 0.00 0.00 0.00 58
20260509154011 55 84 11.0 16.0 0.00 0.00 0.00 57
20260509153510 55 99 7.0 9.0 0.00 0.00 0.00 57
20260509153010 57 77 7.0 9.0 0.00 0.00 0.00 58
20260509152510 55 84 11.0 13.0 0.00 0.00 0.00 57
20260509152012 57 95 11.0 11.0 0.00 0.00 0.00 57
20260509151511 57 85 4.0 7.0 0.00 0.00 0.00 57
20260509151010 55 90 7.0 9.0 0.00 0.00 0.00 57
20260509150511 57 88 7.0 11.0 0.00 0.00 0.00 58
20260509150010 55 92 7.0 9.0 0.00 0.00 0.00 58
20260509145513 57 91 11.0 13.0 0.00 0.00 0.00 58
20260509145011 57 102 11.0 11.0 0.00 0.00 0.00 58
20260509144511 57 86 9.0 9.0 0.00 0.00 0.00 58
20260509144010 55 50 7.0 9.0 0.00 0.00 0.00 60
20260509143510 55 67 7.0 11.0 0.00 0.00 0.00 60
20260509143010 57 66 9.0 13.0 0.00 0.00 0.00 60
20260509142510 55 61 9.0 11.0 0.00 0.00 0.00 61
20260509142012 55 65 7.0 9.0 0.00 0.00 0.00 62
20260509141511 55 93 9.0 9.0 0.00 0.00 0.00 61
20260509141015 55 56 9.0 9.0 0.00 0.00 0.00 61
20260509140511 57 51 9.0 11.0 0.00 0.00 0.00 59
20260509140011 57 61 4.0 7.0 0.00 0.00 0.00 58
20260509135510 57 77 0.0 2.0 0.00 0.00 0.00 59
20260509135010 57 98 2.0 2.0 0.00 0.00 0.00 59
20260509134510 55 111 7.0 9.0 0.00 0.00 0.00 59
20260509134010 57 98 4.0 7.0 0.00 0.00 0.00 60
20260509133511 55 95 2.0 4.0 0.00 0.00 0.00 61
20260509133010 55 27 0.0 2.0 0.00 0.00 0.00 62
20260509132511 55 58 0.0 4.0 0.00 0.00 0.00 62
20260509132010 55 71 4.0 7.0 0.00 0.00 0.00 62
20260509131511 55 75 2.0 4.0 0.00 0.00 0.00 62
20260509131010 55 117 2.0 4.0 0.00 0.00 0.00 61
20260509130511 55 74 0.0 2.0 0.00 0.00 0.00 62
20260509130011 55 55 2.0 2.0 0.00 0.00 0.00 62
20260509125510 55 83 4.0 7.0 0.00 0.00 0.00 61
20260509125010 55 86 4.0 7.0 0.00 0.00 0.00 61
20260509124510 57 77 7.0 9.0 0.00 0.00 0.00 60
20260509124011 59 95 7.0 9.0 0.00 0.00 0.00 59
20260509123511 59 73 2.0 4.0 0.00 0.00 0.00 60
20260509123010 57 69 2.0 7.0 0.00 0.00 0.00 61
20260509122510 57 75 2.0 2.0 0.00 0.00 0.00 63
20260509122015 55 62 0.0 2.0 0.00 0.00 0.00 62
20260509121510 55 39 2.0 4.0 0.00 0.00 0.00 62
20260509121009 55 339 0.0 0.0 0.00 0.00 0.00 62
20260509120511 57 325 0.0 2.0 0.00 0.00 0.00 62
20260509120010 57 351 0.0 2.0 0.00 0.00 0.00 62
20260509115511 59 14 0.0 2.0 0.00 0.00 0.00 62
20260509115010 59 242 0.0 2.0 0.00 0.00 0.00 63
20260509114510 55 103 0.0 2.0 0.00 0.00 0.00 63
20260509114010 55 51 2.0 2.0 0.00 0.00 0.00 64
20260509113510 57 4 2.0 2.0 0.00 0.00 0.00 64
20260509113010 57 355 4.0 4.0 0.00 0.00 0.00 63
20260509112511 59 331 4.0 7.0 0.00 0.00 0.00 64
20260509112012 55 90 2.0 4.0 0.00 0.00 0.00 64
20260509111511 55 351 4.0 4.0 0.00 0.00 0.00 65
20260509111010 55 14 0.0 2.0 0.00 0.00 0.00 66
20260509110510 57 15 2.0 4.0 0.00 0.00 0.00 66
20260509110010 55 32 0.0 0.0 0.00 0.00 0.00 67
20260509105510 55 50 2.0 4.0 0.00 0.00 0.00 68
20260509105010 55 24 2.0 4.0 0.00 0.00 0.00 69
20260509104510 54 14 2.0 4.0 0.00 0.00 0.00 69
20260509104010 54 6 2.0 2.0 0.00 0.00 0.00 70
20260509103511 54 28 2.0 4.0 0.00 0.00 0.00 70
20260509103009 54 351 2.0 4.0 0.00 0.00 0.00 71
20260509102511 54 18 4.0 7.0 0.00 0.00 0.00 71
20260509102016 52 34 0.0 2.0 0.00 0.00 0.00 71
20260509101510 54 40 7.0 7.0 0.00 0.00 0.00 71
20260509101010 52 37 4.0 9.0 0.00 0.00 0.00 72
20260509100511 52 24 2.0 4.0 0.00 0.00 0.00 72
20260509100011 52 45 4.0 7.0 0.00 0.00 0.00 72
20260509095510 52 37 4.0 7.0 0.00 0.00 0.00 72
20260509095010 54 36 4.0 7.0 0.00 0.00 0.00 73
20260509094510 52 44 2.0 7.0 0.00 0.00 0.00 74
20260509094010 52 36 4.0 4.0 0.00 0.00 0.00 75
20260509093510 50 38 4.0 4.0 0.00 0.00 0.00 75
20260509093010 50 40 4.0 7.0 0.00 0.00 0.00 75
20260509092510 50 50 4.0 7.0 0.00 0.00 0.00 75
20260509092014 50 52 7.0 9.0 0.00 0.00 0.00 75
20260509091510 50 36 4.0 7.0 0.00 0.00 0.00 75
20260509091009 50 16 2.0 4.0 0.00 0.00 0.00 75
20260509090510 50 30 4.0 7.0 0.00 0.00 0.00 74
20260509090010 52 83 2.0 4.0 0.00 0.00 0.00 74
20260509085510 50 164 2.0 4.0 0.00 0.00 0.00 74
20260509085011 52 100 4.0 4.0 0.00 0.00 0.00 74
20260509084510 52 113 4.0 7.0 0.00 0.00 0.00 73
20260509084011 52 114 4.0 7.0 0.00 0.00 0.00 75
20260509083511 52 134 4.0 4.0 0.00 0.00 0.00 74
20260509083011 52 81 4.0 7.0 0.00 0.00 0.00 74
20260509082515 50 110 4.0 9.0 0.00 0.00 0.00 75
20260509082013 50 86 4.0 9.0 0.00 0.00 0.00 75
20260509081510 52 101 7.0 9.0 0.00 0.00 0.00 75
20260509081010 52 99 7.0 9.0 0.00 0.00 0.00 75
20260509080510 52 103 4.0 4.0 0.00 0.00 0.00 75
20260509080010 52 137 4.0 7.0 0.00 0.00 0.00 73
20260509075511 52 123 7.0 9.0 0.00 0.00 0.00 74
20260509075011 52 88 7.0 7.0 0.00 0.00 0.00 75
20260509074511 52 100 7.0 9.0 0.00 0.00 0.00 77
20260509074011 50 112 4.0 4.0 0.00 0.00 0.00 77
20260509073510 50 115 7.0 7.0 0.00 0.00 0.00 78
20260509073011 50 124 4.0 4.0 0.00 0.00 0.00 80
20260509072511 50 114 4.0 4.0 0.00 0.00 0.00 81
20260509072011 50 66 2.0 2.0 0.00 0.00 0.00 81
20260509071511 48 66 2.0 2.0 0.00 0.00 0.00 81
20260509071010 50 81 2.0 4.0 0.00 0.00 0.00 81
20260509070509 50 80 2.0 4.0 0.00 0.00 0.00 80
20260509070010 52 68 0.0 0.0 0.00 0.00 0.00 80
20260509065510 50 112 2.0 4.0 0.00 0.00 0.00 81
20260509065011 50 74 2.0 4.0 0.00 0.00 0.00 80
20260509064510 52 105 2.0 4.0 0.00 0.00 0.00 80
20260509064010 52 97 0.0 4.0 0.00 0.00 0.00 82
20260509063510 50 44 0.0 2.0 0.00 0.00 0.00 84
20260509063011 50 71 2.0 4.0 0.00 0.00 0.00 84
20260509062510 50 93 4.0 4.0 0.00 0.00 0.00 84
20260509062014 48 117 2.0 2.0 0.00 0.00 0.00 86
20260509061511 46 78 0.0 2.0 0.00 0.00 0.00 85
20260509061010 46 90 2.0 4.0 0.00 0.00 0.00 85
20260509060511 46 90 0.0 0.0 0.00 0.00 0.00 85
20260509060016 46 90 0.0 2.0 0.00 0.00 0.00 85
20260509055511 46 90 2.0 4.0 0.00 0.00 0.00 85
20260509055011 45 59 2.0 2.0 0.00 0.00 0.00 85
20260509054510 45 56 2.0 4.0 0.00 0.00 0.00 85
20260509053013 45 56 2.0 2.0 0.00 0.00 0.00 85
20260509052511 45 56 0.0 0.0 0.00 0.00 0.00 85
20260509050510 45 56 2.0 2.0 0.00 0.00 0.00 85
20260509050011 45 56 0.0 0.0 0.00 0.00 0.00 85
20260509045010 45 56 2.0 2.0 0.00 0.00 0.00 85
20260509044010 45 56 0.0 0.0 0.00 0.00 0.00 85
20260509043511 45 56 0.0 2.0 0.00 0.00 0.00 85
20260509043010 45 56 2.0 2.0 0.00 0.00 0.00 85
20260509042510 45 56 0.0 2.0 0.00 0.00 0.00 85
20260509042010 45 56 2.0 4.0 0.00 0.00 0.00 85
20260509041511 45 56 0.0 2.0 0.00 0.00 0.00 85
20260509041010 43 56 0.0 2.0 0.00 0.00 0.00 85
20260509035510 43 56 0.0 0.0 0.00 0.00 0.00 84
20260509035010 43 56 0.0 2.0 0.00 0.00 0.00 84
20260509034510 43 56 0.0 0.0 0.00 0.00 0.00 84
20260509034011 43 56 0.0 2.0 0.00 0.00 0.00 83
20260509033510 43 56 0.0 0.0 0.00 0.00 0.00 83
20260509032510 43 56 0.0 2.0 0.00 0.00 0.00 83
20260509031510 43 56 2.0 2.0 0.00 0.00 0.00 83
20260509031010 45 56 2.0 2.0 0.00 0.00 0.00 83
20260509030509 45 52 4.0 4.0 0.00 0.00 0.00 83
20260509030011 45 46 4.0 4.0 0.00 0.00 0.00 83
20260509025511 45 40 4.0 4.0 0.00 0.00 0.00 83
20260509025010 45 52 4.0 4.0 0.00 0.00 0.00 83
20260509024510 45 56 4.0 4.0 0.00 0.00 0.00 83
20260509024010 45 64 4.0 4.0 0.00 0.00 0.00 83
20260509023510 45 64 2.0 4.0 0.00 0.00 0.00 82
20260509023010 45 54 4.0 4.0 0.00 0.00 0.00 82
20260509022511 45 61 4.0 4.0 0.00 0.00 0.00 82
20260509022012 45 78 4.0 4.0 0.00 0.00 0.00 82
20260509021510 45 78 2.0 4.0 0.00 0.00 0.00 82
20260509021009 45 78 4.0 4.0 0.00 0.00 0.00 82
20260509020511 45 78 4.0 7.0 0.00 0.00 0.00 82
20260509020010 45 77 7.0 7.0 0.00 0.00 0.00 82
20260509015511 45 69 7.0 7.0 0.00 0.00 0.00 82
20260509015011 45 66 7.0 7.0 0.00 0.00 0.00 82
20260509014510 45 57 7.0 7.0 0.00 0.00 0.00 82
20260509014010 45 57 4.0 7.0 0.00 0.00 0.00 82
20260509013510 45 58 4.0 7.0 0.00 0.00 0.00 82
20260509013010 45 60 4.0 7.0 0.00 0.00 0.00 82
20260509012510 45 62 7.0 7.0 0.00 0.00 0.00 82
20260509012011 45 63 7.0 7.0 0.00 0.00 0.00 82
20260509011510 45 66 7.0 7.0 0.00 0.00 0.00 82
20260509011009 45 63 7.0 7.0 0.00 0.00 0.00 82
20260509010511 45 66 7.0 7.0 0.00 0.00 0.00 82
20260509010011 45 73 4.0 7.0 0.00 0.00 0.00 82
20260509005511 45 77 7.0 7.0 0.00 0.00 0.00 82
20260509005011 45 72 7.0 9.0 0.00 0.00 0.00 82
20260509004011 45 68 7.0 7.0 0.00 0.00 0.00 82
20260509003511 45 68 7.0 9.0 0.00 0.00 0.00 82
20260509003010 45 68 7.0 7.0 0.00 0.00 0.00 82
20260509002511 45 70 7.0 7.0 0.00 0.00 0.00 81
20260509002012 45 67 7.0 9.0 0.00 0.00 0.00 81
20260509001510 45 64 9.0 9.0 0.00 0.00 0.00 81
20260509001009 45 64 7.0 9.0 0.00 0.00 0.00 81
20260509000511 45 62 7.0 7.0 0.00 0.00 0.00 81
20260508235510 45 56 7.0 7.0 0.00 0.00 0.00 80
20260508235011 45 53 7.0 7.0 0.00 0.00 0.00 80
20260508234511 45 50 7.0 9.0 0.00 0.00 0.00 80
20260508234010 45 42 7.0 7.0 0.00 0.00 0.00 80
20260508233511 45 41 7.0 7.0 0.00 0.00 0.00 80
20260508233010 45 39 7.0 7.0 0.00 0.00 0.00 80
20260508232512 45 39 7.0 9.0 0.00 0.00 0.00 80
20260508232012 46 43 7.0 9.0 0.00 0.00 0.00 80
20260508231511 45 52 7.0 7.0 0.00 0.00 0.00 80
20260508231011 46 54 7.0 7.0 0.00 0.00 0.00 80
20260508230510 46 55 7.0 7.0 0.00 0.00 0.00 80
20260508225510 46 59 4.0 7.0 0.00 0.00 0.00 80
20260508225010 46 55 4.0 7.0 0.00 0.00 0.00 81
20260508224510 46 57 4.0 7.0 0.00 0.00 0.00 81
20260508224011 46 47 4.0 4.0 0.00 0.00 0.00 81
20260508223011 46 34 4.0 4.0 0.00 0.00 0.00 81
20260508222510 46 34 4.0 4.0 0.00 0.00 0.00 82
20260508222016 45 7 4.0 4.0 0.00 0.00 0.00 82
20260508221504 45 359 4.0 4.0 0.00 0.00 0.00 82
20260508220511 45 359 2.0 4.0 0.00 0.00 0.00 82
20260508220010 45 359 4.0 4.0 0.00 0.00 0.00 82
20260508215011 46 359 4.0 4.0 0.00 0.00 0.00 81
20260508214510 46 14 4.0 7.0 0.00 0.00 0.00 81
20260508214010 46 9 4.0 7.0 0.00 0.00 0.00 82
20260508213011 46 9 4.0 4.0 0.00 0.00 0.00 81
20260508212510 46 16 4.0 4.0 0.00 0.00 0.00 81
20260508212012 46 42 4.0 4.0 0.00 0.00 0.00 81
20260508211510 46 35 7.0 7.0 0.00 0.00 0.00 82
20260508211011 46 37 7.0 7.0 0.00 0.00 0.00 82
20260508210511 46 38 7.0 7.0 0.00 0.00 0.00 82
20260508210010 46 41 4.0 7.0 0.00 0.00 0.00 82
20260508205510 46 47 7.0 7.0 0.00 0.00 0.00 82
20260508205010 46 48 4.0 4.0 0.00 0.00 0.00 82
20260508204510 46 61 4.0 4.0 0.00 0.00 0.00 81
20260508204010 46 57 7.0 7.0 0.00 0.00 0.00 82
20260508203510 46 46 4.0 7.0 0.00 0.00 0.00 82
20260508203011 46 44 7.0 7.0 0.00 0.00 0.00 82
20260508202510 46 39 9.0 9.0 0.00 0.00 0.00 82
20260508202013 46 44 9.0 11.0 0.00 0.00 0.00 82
20260508201511 46 46 11.0 11.0 0.00 0.00 0.00 82
20260508201010 46 38 9.0 11.0 0.00 0.00 0.00 82
20260508200510 46 45 11.0 13.0 0.00 0.00 0.00 82
20260508200010 46 37 9.0 13.0 0.00 0.00 0.00 82
20260508195511 46 48 11.0 11.0 0.00 0.00 0.00 83
20260508195010 46 53 9.0 11.0 0.00 0.00 0.00 83
20260508194510 46 46 11.0 13.0 0.00 0.00 0.00 83
20260508194010 46 48 9.0 11.0 0.00 0.00 0.00 83
20260508193510 46 55 9.0 11.0 0.00 0.00 0.00 83
20260508193010 46 67 7.0 9.0 0.00 0.00 0.00 83
20260508192510 46 65 7.0 9.0 0.00 0.00 0.00 83
20260508192010 46 55 4.0 7.0 0.00 0.00 0.00 83
20260508191510 46 43 7.0 7.0 0.00 0.00 0.00 83
20260508191009 46 28 4.0 7.0 0.00 0.00 0.00 83
20260508190510 46 29 4.0 7.0 0.00 0.00 0.00 83
20260508190011 46 22 7.0 9.0 0.00 0.00 0.00 84
20260508185511 46 12 4.0 7.0 0.00 0.00 0.00 84
20260508185011 46 4 4.0 7.0 0.00 0.00 0.00 84
20260508184511 46 7 7.0 9.0 0.00 0.00 0.00 84
20260508184011 46 21 7.0 7.0 0.00 0.00 0.00 84
20260508183510 46 29 7.0 7.0 0.00 0.00 0.00 84
20260508183011 46 26 7.0 7.0 0.00 0.00 0.00 83
20260508182515 46 1 7.0 7.0 0.00 0.00 0.00 83
20260508182012 46 9 7.0 7.0 0.00 0.00 0.00 83
20260508181510 46 14 7.0 7.0 0.00 0.00 0.00 83